Location: Unspecified
(44.0704°N, 88.6889°W)
Time: 12:52:24
(UTC+01:00)

Okean 3 - Pass Details

Date: 06 October 2020
Orbit: 575 x 602 km, 82.5° (Epoch: 26 October)

Event Time Altitude Azimuth Distance (km) Brightness Sun altitude
Exits shadow 11:04:36 15° 121° (ESE) 1,625 6.0 -31.4°
Maximum altitude 11:06:33 20° 87° (E) 1,391 5.9 -31.0°
Drops below altitude 10° 11:09:40 10° 40° (NE) 1,930 6.8 -30.5°
Sets 11:12:19 0° 24° (NNE) 2,832 7.6 -30.1°
